When you browse on this site, cookies collect data to enhance your experience and personalize the content and advertising you see.
Visit our Privacy Policy to learn more. By continuing to use the site, you agree to this use of cookies and data.
  • In Switzerland
  • List of Countries
  • For 7 days
  • Water Temperature
  • Weather Map
  • Weather Widgets
  • user-avatar
    Login

    Hourly Weather Dreieich

    Today, 31 May, Sunday

    Time Temperature Precipitation Wind Pressure Humidity
    00:00 +12°C° 0 mm 2 mps 751 mmHg 67%
    01:00 +12°C° 0 mm 2 mps 750 mmHg 69%
    02:00 +10°C° 0 mm 2 mps 750 mmHg 72%
    03:00 +9°C° 0 mm 2 mps 750 mmHg 75%
    04:00 +9°C° 0 mm 2 mps 750 mmHg 77%
    05:00 +10°C° 0 mm 2 mps 750 mmHg 74%
    06:00 +12°C° 0 mm 2 mps 750 mmHg 71%
    07:00 +12°C° 0 mm 2 mps 750 mmHg 68%
    08:00 +14°C° 0 mm 2 mps 750 mmHg 62%
    09:00 +14°C° 0 mm 3 mps 750 mmHg 56%
    10:00 +17°C° 0 mm 3 mps 750 mmHg 50%
    11:00 +18°C° 0 mm 3 mps 750 mmHg 48%
    12:00 +19°C° 0 mm 3 mps 750 mmHg 45%
    13:00 +20°C° 0 mm 4 mps 750 mmHg 43%
    14:00 +20°C° 0 mm 4 mps 750 mmHg 42%
    15:00 +20°C° 0 mm 4 mps 750 mmHg 42%
    16:00 +20°C° 0 mm 4 mps 750 mmHg 42%
    17:00 +20°C° 0 mm 3 mps 750 mmHg 46%
    18:00 +19°C° 0 mm 3 mps 750 mmHg 50%
    19:00 +18°C° 0 mm 3 mps 750 mmHg 54%
    20:00 +17°C° 0 mm 3 mps 750 mmHg 59%
    21:00 +16°C° 0 mm 3 mps 750 mmHg 63%
    22:00 +13°C° 0 mm 3 mps 751 mmHg 67%
    23:00 +14°C° 0 mm 2 mps 751 mmHg 71%

    Tomorrow, 1 June, Monday

    Time Temperature Precipitation Wind Pressure Humidity
    00:00 +13°C° 0 mm 2 mps 751 mmHg 74%
    01:00 +12°C° 0 mm 1 mps 751 mmHg 77%
    02:00 +12°C° 0 mm 1 mps 751 mmHg 79%
    03:00 +11°C° 0 mm 1 mps 751 mmHg 82%
    04:00 +11°C° 0 mm 1 mps 750 mmHg 84%
    05:00 +12°C° 0 mm 2 mps 751 mmHg 80%
    06:00 +13°C° 0 mm 2 mps 751 mmHg 76%
    07:00 +14°C° 0 mm 2 mps 751 mmHg 73%
    08:00 +16°C° 0 mm 2 mps 751 mmHg 65%
    09:00 +19°C° 0 mm 3 mps 751 mmHg 58%
    10:00 +21°C° 0 mm 3 mps 751 mmHg 51%
    11:00 +22°C° 0 mm 3 mps 750 mmHg 47%
    12:00 +23°C° 0 mm 4 mps 750 mmHg 44%
    13:00 +25°C° 0 mm 4 mps 750 mmHg 41%
    14:00 +25°C° 0 mm 4 mps 750 mmHg 40%
    15:00 +25°C° 0 mm 4 mps 749 mmHg 40%
    16:00 +25°C° 0 mm 4 mps 749 mmHg 40%
    17:00 +25°C° 0 mm 3 mps 749 mmHg 45%
    18:00 +24°C° 0 mm 3 mps 749 mmHg 50%
    19:00 +22°C° 0 mm 3 mps 749 mmHg 55%
    20:00 +20°C° 0 mm 3 mps 749 mmHg 59%
    21:00 +19°C° 0 mm 3 mps 749 mmHg 63%
    22:00 +17°C° 0 mm 3 mps 750 mmHg 67%
    23:00 +17°C° 0 mm 3 mps 749 mmHg 70%

    Day after tomorrow, 2 June, Tuesday

    Time Temperature Precipitation Wind Pressure Humidity
    00:00 +16°C° 0 mm 3 mps 749 mmHg 72%
    01:00 +15°C° 0 mm 2 mps 749 mmHg 75%
    02:00 +14°C° 0 mm 2 mps 749 mmHg 76%
    03:00 +14°C° 0 mm 2 mps 749 mmHg 78%
    04:00 +13°C° 0 mm 2 mps 749 mmHg 80%
    05:00 +14°C° 0 mm 2 mps 749 mmHg 75%
    06:00 +15°C° 0 mm 2 mps 749 mmHg 71%
    07:00 +16°C° 0 mm 2 mps 749 mmHg 66%
    08:00 +18°C° 0 mm 2 mps 748 mmHg 60%
    09:00 +20°C° 0 mm 3 mps 748 mmHg 54%
    10:00 +21°C° 0 mm 3 mps 748 mmHg 48%
    11:00 +22°C° 0 mm 3 mps 748 mmHg 45%
    12:00 +24°C° 0 mm 3 mps 747 mmHg 42%
    13:00 +25°C° 0 mm 3 mps 747 mmHg 39%
    14:00 +25°C° 0 mm 3 mps 746 mmHg 39%
    15:00 +25°C° 0 mm 3 mps 746 mmHg 39%
    16:00 +26°C° 0 mm 3 mps 745 mmHg 39%
    17:00 +25°C° 0 mm 3 mps 745 mmHg 43%
    18:00 +24°C° 0 mm 2 mps 744 mmHg 47%
    19:00 +23°C° 0 mm 2 mps 744 mmHg 52%
    20:00 +21°C° 0 mm 2 mps 744 mmHg 56%
    21:00 +20°C° 0 mm 1 mps 744 mmHg 60%
    22:00 +19°C° 0 mm 1 mps 744 mmHg 65%
    23:00 +18°C° 0 mm 1 mps 744 mmHg 68%

    3 June, Wednesday

    Time Temperature Precipitation Wind Pressure Humidity
    00:00 +16°C° 0 mm 1 mps 743 mmHg 71%
    01:00 +16°C° 0 mm 2 mps 743 mmHg 75%
    02:00 +15°C° 0 mm 1 mps 743 mmHg 76%
    03:00 +14°C° 0 mm 1 mps 743 mmHg 76%
    04:00 +14°C° 0 mm 1 mps 743 mmHg 77%
    05:00 +15°C° 0 mm 1 mps 742 mmHg 73%
    06:00 +16°C° 0 mm 1 mps 742 mmHg 69%
    07:00 +18°C° 0 mm 1 mps 742 mmHg 65%
    08:00 +20°C° 0 mm 1 mps 742 mmHg 58%
    09:00 +20°C° 0 mm 2 mps 742 mmHg 52%
    10:00 +23°C° 0 mm 2 mps 742 mmHg 45%
    11:00 +24°C° 0 mm 2 mps 742 mmHg 42%
    12:00 +25°C° 0 mm 2 mps 741 mmHg 39%
    13:00 +26°C° 0 mm 2 mps 741 mmHg 36%
    14:00 +27°C° 0 mm 2 mps 741 mmHg 36%
    15:00 +27°C° 0 mm 2 mps 740 mmHg 37%
    16:00 +27°C° 0 mm 2 mps 740 mmHg 38%
    17:00 +26°C° 0 mm 2 mps 740 mmHg 42%
    18:00 +25°C° 0 mm 2 mps 740 mmHg 47%
    19:00 +24°C° 0 mm 2 mps 740 mmHg 52%
    20:00 +23°C° 0 mm 2 mps 740 mmHg 55%
    21:00 +21°C° 0 mm 1 mps 740 mmHg 59%
    22:00 +20°C° 0 mm 1 mps 741 mmHg 62%
    23:00 +19°C° 0 mm 1 mps 740 mmHg 65%

    4 June, Thursday

    Time Temperature Precipitation Wind Pressure Humidity
    00:00 +19°C° 0 mm 1 mps 740 mmHg 68%
    01:00 +18°C° 0 mm 1 mps 740 mmHg 71%
    02:00 +18°C° 0 mm 1 mps 740 mmHg 73%
    03:00 +16°C° 0 mm 1 mps 740 mmHg 75%
    04:00 +16°C° 0 mm 1 mps 740 mmHg 77%
    05:00 +18°C° 0 mm 1 mps 740 mmHg 73%
    06:00 +19°C° 0 mm 1 mps 740 mmHg 70%
    07:00 +19°C° 0 mm 1 mps 740 mmHg 67%
    08:00 +20°C° 0 mm 2 mps 740 mmHg 62%
    09:00 +21°C° 0 mm 2 mps 740 mmHg 58%
    10:00 +24°C° 0 mm 3 mps 741 mmHg 53%
    11:00 +23°C° 0.1 mm 2 mps 740 mmHg 56%
    12:00 +23°C° 0.1 mm 2 mps 740 mmHg 59%
    13:00 +23°C° 0.1 mm 2 mps 740 mmHg 62%
    14:00 +24°C° 0.3 mm 2 mps 740 mmHg 61%
    15:00 +25°C° 0.3 mm 2 mps 740 mmHg 60%
    16:00 +25°C° 0.3 mm 2 mps 739 mmHg 58%
    17:00 +24°C° 0.6 mm 2 mps 739 mmHg 63%
    18:00 +24°C° 0.6 mm 2 mps 739 mmHg 68%
    19:00 +23°C° 0.6 mm 1 mps 739 mmHg 73%
    20:00 +22°C° 0.2 mm 1 mps 739 mmHg 76%
    21:00 +21°C° 0.2 mm 1 mps 739 mmHg 78%
    22:00 +19°C° 0.2 mm 1 mps 739 mmHg 81%
    23:00 +19°C° 0 mm 1 mps 739 mmHg 82%

    5 June, Friday

    Time Temperature Precipitation Wind Pressure Humidity
    00:00 +18°C° 0 mm 1 mps 739 mmHg 83%
    01:00 +18°C° 0 mm 1 mps 739 mmHg 84%
    02:00 +16°C° 0 mm 0 mps 739 mmHg 85%
    03:00 +15°C° 0 mm 0 mps 739 mmHg 85%
    04:00 +15°C° 0 mm 0 mps 739 mmHg 86%
    05:00 +16°C° 0 mm 0 mps 739 mmHg 83%
    06:00 +17°C° 0 mm 0 mps 739 mmHg 81%
    07:00 +18°C° 0 mm 0 mps 739 mmHg 79%
    08:00 +22°C° 0 mm 1 mps 739 mmHg 73%
    09:00 +23°C° 0 mm 1 mps 739 mmHg 66%
    10:00 +25°C° 0 mm 1 mps 738 mmHg 60%
    11:00 +26°C° 0.1 mm 2 mps 738 mmHg 56%
    12:00 +27°C° 0.1 mm 2 mps 738 mmHg 52%
    13:00 +28°C° 0.1 mm 3 mps 737 mmHg 48%
    14:00 +28°C° 0.5 mm 3 mps 737 mmHg 54%
    15:00 +27°C° 0.5 mm 3 mps 737 mmHg 59%
    16:00 +26°C° 0.5 mm 4 mps 737 mmHg 64%
    17:00 +25°C° 0.9 mm 3 mps 737 mmHg 69%
    18:00 +22°C° 0.9 mm 3 mps 737 mmHg 74%
    19:00 +20°C° 0.9 mm 2 mps 737 mmHg 80%
    20:00 +20°C° 0.1 mm 2 mps 737 mmHg 81%
    21:00 +19°C° 0.1 mm 2 mps 738 mmHg 82%
    22:00 +20°C° 0.1 mm 1 mps 738 mmHg 84%
    23:00 +20°C° 0 mm 1 mps 739 mmHg 85%
    Show more